EW5738 Weather Reports


Display with metric or nautical units.
time (UTC)temp
F
wind
direction
speed
MPH
gust
MPH
rain 1hr
in
rain 24hr
in
rain mn
in
humidity
%
barometer
mb
20260509223025 65 178 1.0 10.0 0.00 0.00 0.00 74 1027.0
20260509221518 64 51 3.0 11.0 0.00 0.00 0.00 75 1026.9
20260509220016 63 206 1.0 6.0 0.00 0.00 0.00 76 1026.7
20260509214511 62 140 2.0 4.0 0.00 0.00 0.00 78 1026.6
20260509213006 60 46 1.0 3.0 0.00 0.00 0.00 79 1026.4
20260509211502 59 89 0.0 5.0 0.00 0.00 0.00 82 1026.4
20260509204603 56 142 2.0 4.0 0.00 0.00 0.00 85 1025.7
20260509203059 55 286 1.0 3.0 0.00 0.00 0.00 86 1025.6
20260509201552 55 219 2.0 5.0 0.00 0.00 0.00 86 1025.4
20260509200051 55 187 3.0 5.0 0.00 0.00 0.00 84 1025.3
20260509194550 56 178 1.0 3.0 0.00 0.00 0.00 82 1025.3
20260509193047 56 234 1.0 3.0 0.00 0.00 0.00 83 1025.3
20260509191546 55 20 1.0 3.0 0.00 0.00 0.00 85 1025.0
20260509190049 56 166 1.0 4.0 0.00 0.00 0.00 84 1024.9
20260509184547 56 156 1.0 4.0 0.00 0.00 0.00 84 1024.7
20260509183044 56 46 0.0 3.0 0.00 0.00 0.00 83 1024.7
20260509181545 56 321 1.0 2.0 0.00 0.00 0.00 84 1024.7
20260509180042 55 283 2.0 4.0 0.00 0.00 0.00 85 1024.6
20260509174640 56 286 2.0 4.0 0.00 0.00 0.00 85 1024.6
20260509173038 56 197 0.0 2.0 0.00 0.00 0.00 82 1024.7
20260509171538 58 135 0.0 2.0 0.00 0.00 0.00 80 1024.7
20260509170036 56 135 0.0 2.0 0.00 0.00 0.00 84 1024.5
20260509164535 57 295 1.0 2.0 0.00 0.00 0.00 83 1024.6
20260509163047 56 314 1.0 2.0 0.00 0.00 0.00 85 1024.7
20260509161532 56 319 1.0 2.0 0.00 0.00 0.00 86 1024.8
20260509160031 55 331 0.0 3.0 0.00 0.00 0.00 89 1024.7
20260509154530 54 324 0.0 3.0 0.00 0.00 0.00 90 1024.7
20260509153026 54 1 0.0 3.0 0.00 0.00 0.00 89 1024.7
20260509151523 55 283 0.0 2.0 0.00 0.00 0.00 87 1025.0
20260509150019 56 201 1.0 3.0 0.00 0.00 0.00 86 1025.0
20260509144516 57 178 1.0 2.0 0.00 0.00 0.00 84 1024.9
20260509143015 58 46 0.0 1.0 0.00 0.00 0.00 84 1024.9
20260509141514 57 169 2.0 3.0 0.00 0.00 0.00 85 1024.9
20260509140012 57 284 1.0 3.0 0.00 0.00 0.00 85 1024.9
20260509134508 57 303 4.0 8.0 0.00 0.00 0.00 87 1024.9
20260509133007 57 286 2.0 5.0 0.00 0.00 0.00 86 1025.1
20260509131506 57 297 3.0 4.0 0.00 0.00 0.00 86 1025.2
20260509130012 56 283 2.0 5.0 0.00 0.00 0.00 87 1025.2
20260509124505 57 317 2.0 4.0 0.00 0.00 0.00 85 1025.1
20260509123057 57 314 3.0 5.0 0.00 0.00 0.00 84 1025.1
20260509121556 58 286 2.0 4.0 0.00 0.00 0.00 83 1025.2
20260509120056 59 297 2.0 5.0 0.00 0.00 0.00 82 1025.2
20260509114600 58 311 3.0 6.0 0.00 0.00 0.00 83 1025.3
20260509113055 59 303 2.0 5.0 0.00 0.00 0.00 82 1025.3
20260509111554 58 311 3.0 5.0 0.00 0.00 0.00 83 1025.2
20260509110057 59 301 2.0 4.0 0.00 0.00 0.00 82 1025.2
20260509104552 59 295 3.0 6.0 0.00 0.00 0.00 81 1025.2
20260509103050 59 297 3.0 7.0 0.00 0.00 0.00 81 1025.1
20260509101549 59 298 2.0 4.0 0.00 0.00 0.00 80 1025.0
20260509094546 61 305 2.0 4.0 0.00 0.00 0.00 76 1024.9
20260509093045 61 295 1.0 3.0 0.00 0.00 0.00 75 1024.6
20260509091542 62 303 1.0 3.0 0.00 0.00 0.00 73 1024.5
20260509090041 63 314 1.0 3.0 0.00 0.00 0.00 69 1024.4
20260509084546 63 314 1.0 3.0 0.00 0.00 0.00 68 1024.2
20260509083039 65 286 0.0 1.0 0.00 0.00 0.00 63 1023.9
20260509081539 65 286 0.0 2.0 0.00 0.00 0.00 63 1023.8
20260509080054 66 178 1.0 3.0 0.00 0.00 0.00 62 1023.6
20260509074537 67 160 1.0 3.0 0.00 0.00 0.00 60 1023.5
20260509073110 68 124 0.0 3.0 0.00 0.00 0.00 57 1023.3
20260509071534 69 124 1.0 6.0 0.00 0.00 0.00 55 1023.3
20260509070034 70 164 2.0 8.0 0.00 0.00 0.00 55 1023.0
20260509064533 71 119 4.0 10.0 0.00 0.00 0.00 54 1022.8
20260509063033 71 121 4.0 10.0 0.00 0.00 0.00 54 1022.6
20260509061532 72 135 3.0 8.0 0.00 0.00 0.00 53 1022.4
20260509060030 72 135 2.0 10.0 0.00 0.00 0.00 53 1022.2
20260509054535 72 135 1.0 9.0 0.00 0.00 0.00 52 1022.2
20260509053031 73 148 2.0 8.0 0.00 0.00 0.00 51 1022.1
20260509051527 73 168 5.0 9.0 0.00 0.00 0.00 51 1022.0
20260509050034 73 161 1.0 4.0 0.00 0.00 0.00 51 1022.0
20260509044523 73 135 1.0 7.0 0.00 0.00 0.00 54 1022.0
20260509043037 72 124 2.0 7.0 0.00 0.00 0.00 54 1022.0
20260509041520 73 130 6.0 11.0 0.00 0.00 0.00 53 1022.1
20260509040019 74 129 1.0 7.0 0.00 0.00 0.00 53 1022.0
20260509034518 73 144 2.0 5.0 0.00 0.00 0.00 54 1022.1
20260509033020 73 132 3.0 10.0 0.00 0.00 0.00 55 1022.2
20260509031518 73 13 1.0 6.0 0.00 0.00 0.00 57 1022.5
20260509030012 73 152 1.0 10.0 0.00 0.00 0.00 55 1022.5
20260509024512 74 46 3.0 9.0 0.00 0.00 0.00 54 1022.7
20260509023017 73 124 2.0 8.0 0.00 0.00 0.00 56 1023.0
20260509021516 74 229 3.0 7.0 0.00 0.00 0.00 54 1023.2
20260509020004 72 118 5.0 10.0 0.00 0.00 0.00 55 1023.4
20260509014503 72 173 6.0 11.0 0.00 0.00 0.00 53 1023.6
20260509013107 72 193 6.0 12.0 0.00 0.00 0.00 53 1023.7
20260509011559 70 220 5.0 14.0 0.00 0.00 0.00 54 1023.9
20260509010059 71 141 5.0 10.0 0.00 0.00 0.00 56 1024.0
20260509004612 69 139 4.0 9.0 0.00 0.00 0.00 57 1024.2
20260509003052 67 178 3.0 8.0 0.00 0.00 0.00 58 1024.3
20260509001548 67 128 4.0 11.0 0.00 0.00 0.00 57 1024.3
20260509000046 67 180 5.0 11.0 0.00 0.00 0.00 58 1024.4
20260508234546 65 150 4.0 10.0 0.00 0.00 0.00 58 1024.3
20260508233040 64 187 5.0 10.0 0.00 0.00 0.00 58 1024.2
20260508231538 64 125 3.0 12.0 0.00 0.00 0.00 59 1024.2
20260508230050 64 170 3.0 7.0 0.00 0.00 0.00 60 1024.0
20260508224533 63 279 2.0 6.0 0.00 0.00 0.00 61 1023.8